Terminal Aerodrome Forecast
Issued by NWS Portland, ME

Home | Current Version | Previous Version | Text Only | Print | Product List | Glossary On
Versions: 1 2 3 4 5 6 7 8 9 10 11 12 13 14 15 16 17 18 19 20 21 22
000
FTUS41 KGYX 280221 AAA
TAFCON
TAF AMD
KCON 280221Z 2802/2824 34016G26KT 3SM -SN BLSN OVC035
      TEMPO 2803/2805 1SM -SN BKN025
     FM280900 33010G18KT 5SM -SN SCT025 OVC040
     FM281300 33009KT P6SM -SHSN BKN040 OVC080
     FM281600 33009KT P6SM SCT050 BKN080=

USA.gov is the U.S. government's official web portal to all federal, state and local government web resources and services.